owner,sensor,date,latitude,longitude,vertical_datum,direction_of_sea_water_velocity,sea_water_speed,upward_sea_water_velocity,qcFlag 
ADCP,ioos:station:wmo:42387:1,2017-08-01T00:09:00Z,28.2670,-88.3990,79.8,218.0,5.8,-6.9,'1111122,1111122,1111122' 
ADCP,ioos:station:wmo:42387:1,2017-08-01T00:49:00Z,28.2670,-88.3990,79.8,252.0,4.6,-5.3,'1111122,1111122,1111122' 
ADCP,ioos:station:wmo:42387:1,2017-08-01T02:09:00Z,28.2670,-88.3990,79.8,306.0,3.7,-3.0,'1111122,1111122,1111122' 
ADCP,ioos:station:wmo:42387:1,2017-08-01T03:29:00Z,28.2670,-88.3990,79.8,282.0,6.3,-3.5,'1111122,1111122,1111122' 
ADCP,ioos:station:wmo:42387:1,2017-08-01T04:29:00Z,28.2670,-88.3990,79.8,256.0,5.4,-4.4,'1111122,1111122,1111122' 
ADCP,ioos:station:wmo:42387:1,2017-08-01T06:29:00Z,28.2670,-88.3990,79.8,277.0,7.8,-3.0,'1111122,1111122,1111122' 
ADCP,ioos:station:wmo:42387:1,2017-08-01T07:29:00Z,28.2670,-88.3990,79.8,271.0,8.0,-0.9,'1111122,1111122,1111122' 
ADCP,ioos:station:wmo:42387:1,2017-08-01T08:29:00Z,28.2670,-88.3990,79.8,263.0,4.6,-1.2,'1111122,1111122,1111122' 
ADCP,ioos:station:wmo:42387:1,2017-08-01T10:29:00Z,28.2670,-88.3990,79.8,226.0,7.7,-0.1,'1111122,1111122,1111122' 
ADCP,ioos:station:wmo:42387:1,2017-08-01T11:29:00Z,28.2670,-88.3990,79.8,192.0,10.4,0.0,'1111122,1111122,1114422' 
ADCP,ioos:station:wmo:42387:1,2017-08-01T12:29:00Z,28.2670,-88.3990,79.8,187.0,8.3,-0.3,'1111122,1111122,1111122' 
ADCP,ioos:station:wmo:42387:1,2017-08-01T13:29:00Z,28.2670,-88.3990,79.8,196.0,8.0,-1.7,'1111122,1111122,1111122' 
ADCP,ioos:station:wmo:42387:1,2017-08-01T14:29:00Z,28.2670,-88.3990,79.8,193.0,7.8,-1.3,'1111122,1111122,1111122' 
ADCP,ioos:station:wmo:42387:1,2017-08-01T15:29:00Z,28.2670,-88.3990,79.8,205.0,8.1,-3.3,'1111122,1111122,1111122' 
ADCP,ioos:station:wmo:42387:1,2017-08-01T17:29:00Z,28.2670,-88.3990,79.8,206.0,8.4,-2.7,'1111122,1111122,1111122' 
ADCP,ioos:station:wmo:42387:1,2017-08-01T18:29:00Z,28.2670,-88.3990,79.8,215.0,7.8,-2.5,'1111122,1111122,1111122' 
ADCP,ioos:station:wmo:42387:1,2017-08-01T19:29:00Z,28.2670,-88.3990,79.8,227.0,8.0,-4.1,'1111122,1111122,1111122' 
ADCP,ioos:station:wmo:42387:1,2017-08-01T20:29:00Z,28.2670,-88.3990,79.8,223.0,4.9,-4.2,'1111122,1111122,1111122' 
ADCP,ioos:station:wmo:42387:1,2017-08-01T21:29:00Z,28.2670,-88.3990,79.8,244.0,6.1,-4.3,'1111122,1111122,1111122' 
ADCP,ioos:station:wmo:42387:1,2017-08-01T22:09:00Z,28.2670,-88.3990,79.8,259.0,4.1,-4.5,'1111122,1111122,1111122' 
ADCP,ioos:station:wmo:42387:1,2017-08-02T01:09:00Z,28.2670,-88.3990,79.8,228.0,5.1,-1.0,'1111122,1111122,1111122' 
ADCP,ioos:station:wmo:42387:1,2017-08-02T02:09:00Z,28.2670,-88.3990,79.8,245.0,4.1,-1.4,'1111122,1111122,1111122' 
ADCP,ioos:station:wmo:42387:1,2017-08-02T03:29:00Z,28.2670,-88.3990,79.8,264.0,2.9,-1.3,'1111122,1111122,1111122' 
ADCP,ioos:station:wmo:42387:1,2017-08-02T04:29:00Z,28.2670,-88.3990,79.8,245.0,4.7,-1.5,'1111122,1111122,1111122' 
ADCP,ioos:station:wmo:42387:1,2017-08-02T05:09:00Z,28.2670,-88.3990,79.8,212.0,3.6,-0.3,'1111122,1111122,1111122' 
ADCP,ioos:station:wmo:42387:1,2017-08-02T06:29:00Z,28.2670,-88.3990,79.8,235.0,5.5,0.2,'1111122,1111122,1111122' 
ADCP,ioos:station:wmo:42387:1,2017-08-02T07:29:00Z,28.2670,-88.3990,79.8,227.0,7.9,1.2,'1111122,1111122,1111122' 
ADCP,ioos:station:wmo:42387:1,2017-08-02T08:29:00Z,28.2670,-88.3990,79.8,249.0,4.2,0.0,'1111122,1111122,1114422' 
ADCP,ioos:station:wmo:42387:1,2017-08-02T09:29:00Z,28.2670,-88.3990,79.8,238.0,2.2,1.5,'1111122,1111122,1111122' 
ADCP,ioos:station:wmo:42387:1,2017-08-02T10:29:00Z,28.2670,-88.3990,79.8,194.0,3.0,1.9,'1111122,1111122,1111122' 
ADCP,ioos:station:wmo:42387:1,2017-08-02T11:09:00Z,28.2670,-88.3990,79.8,203.0,5.2,-0.2,'1111122,1111122,1111122' 
ADCP,ioos:station:wmo:42387:1,2017-08-02T12:29:00Z,28.2670,-88.3990,79.8,183.0,3.5,-2.1,'1111122,1111122,1111122' 
ADCP,ioos:station:wmo:42387:1,2017-08-02T13:29:00Z,28.2670,-88.3990,79.8,210.0,4.0,-1.6,'1111122,1111122,1111122' 
ADCP,ioos:station:wmo:42387:1,2017-08-02T14:29:00Z,28.2670,-88.3990,79.8,320.0,3.0,-4.5,'1111122,1111122,1111122' 
ADCP,ioos:station:wmo:42387:1,2017-08-02T15:09:00Z,28.2670,-88.3990,79.8,312.0,1.2,-2.8,'1111122,1111122,1111122' 
ADCP,ioos:station:wmo:42387:1,2017-08-02T16:29:00Z,28.2670,-88.3990,79.8,175.0,1.1,-2.6,'1111122,1111122,1111122' 
ADCP,ioos:station:wmo:42387:1,2017-08-02T17:29:00Z,28.2670,-88.3990,79.8,188.0,1.4,-2.3,'1111122,1111122,1111122' 
ADCP,ioos:station:wmo:42387:1,2017-08-02T18:29:00Z,28.2670,-88.3990,79.8,189.0,4.6,-1.6,'1111122,1111122,1111122' 
ADCP,ioos:station:wmo:42387:1,2017-08-02T20:29:00Z,28.2670,-88.3990,79.8,176.0,4.3,-2.5,'1111122,1111122,1111122' 
ADCP,ioos:station:wmo:42387:1,2017-08-03T00:09:00Z,28.2670,-88.3990,79.8,185.0,3.2,-2.2,'1111122,1111122,1111122' 
ADCP,ioos:station:wmo:42387:1,2017-08-03T02:49:00Z,28.2670,-88.3990,79.8,274.0,4.0,-1.3,'1111122,1111122,1111122' 
ADCP,ioos:station:wmo:42387:1,2017-08-03T05:09:00Z,28.2670,-88.3990,79.8,224.0,3.5,-0.1,'1111122,1111122,1111122' 
ADCP,ioos:station:wmo:42387:1,2017-08-03T06:49:00Z,28.2670,-88.3990,79.8,325.0,7.5,-2.4,'1111122,1111122,1111122' 
ADCP,ioos:station:wmo:42387:1,2017-08-03T08:29:00Z,28.2670,-88.3990,79.8,315.0,0.4,0.0,'1111122,1111122,1114422' 
ADCP,ioos:station:wmo:42387:1,2017-08-03T09:29:00Z,28.2670,-88.3990,79.8,239.0,0.6,0.5,'1111122,1111122,1111122' 
ADCP,ioos:station:wmo:42387:1,2017-08-03T11:29:00Z,28.2670,-88.3990,79.8,54.0,0.9,-1.2,'1111122,1111122,1111122' 
ADCP,ioos:station:wmo:42387:1,2017-08-03T12:09:00Z,28.2670,-88.3990,79.8,113.0,2.8,-1.6,'1111122,1111122,1111122' 
ADCP,ioos:station:wmo:42387:1,2017-08-03T13:29:00Z,28.2670,-88.3990,79.8,56.0,1.4,-3.1,'1111122,1111122,1111122' 
ADCP,ioos:station:wmo:42387:1,2017-08-03T14:09:00Z,28.2670,-88.3990,79.8,77.0,0.9,-3.5,'1111122,1111122,1111122' 
ADCP,ioos:station:wmo:42387:1,2017-08-03T15:09:00Z,28.2670,-88.3990,79.8,38.0,2.9,-3.2,'1111122,1111122,1111122' 
ADCP,ioos:station:wmo:42387:1,2017-08-03T16:09:00Z,28.2670,-88.3990,79.8,307.0,0.5,-3.5,'1111122,1111122,1111122' 
ADCP,ioos:station:wmo:42387:1,2017-08-03T17:09:00Z,28.2670,-88.3990,79.8,86.0,1.3,-4.9,'1111122,1111122,1111122' 
ADCP,ioos:station:wmo:42387:1,2017-08-03T22:49:00Z,28.2670,-88.3990,79.8,166.0,5.8,-2.1,'1111122,1111122,1111122' 
ADCP,ioos:station:wmo:42387:1,2017-08-04T00:29:00Z,28.2670,-88.3990,79.8,208.0,4.5,-1.5,'1111122,1111122,1111122' 
ADCP,ioos:station:wmo:42387:1,2017-08-04T04:49:00Z,28.2670,-88.3990,79.8,309.0,5.6,-2.0,'1111122,1111122,1111122' 
ADCP,ioos:station:wmo:42387:1,2017-08-04T10:49:00Z,28.2670,-88.3990,79.8,20.0,7.9,-1.4,'1111122,1111122,1111122' 
ADCP,ioos:station:wmo:42387:1,2017-08-04T12:09:00Z,28.2670,-88.3990,79.8,36.0,9.8,-3.2,'1111122,1111122,1111122' 
ADCP,ioos:station:wmo:42387:1,2017-08-04T17:29:00Z,28.2670,-88.3990,79.8,117.0,3.0,-1.1,'1111122,1111122,1111122' 
ADCP,ioos:station:wmo:42387:1,2017-08-04T21:29:00Z,28.2670,-88.3990,79.8,159.0,4.0,-2.7,'1111122,1111122,1111122' 
ADCP,ioos:station:wmo:42387:1,2017-08-04T22:29:00Z,28.2670,-88.3990,79.8,166.0,4.0,-2.4,'1111122,1111122,1111122' 
ADCP,ioos:station:wmo:42387:1,2017-08-05T05:29:00Z,28.2670,-88.3990,79.8,337.0,10.9,-3.0,'1111122,1111122,1111122' 
ADCP,ioos:station:wmo:42387:1,2017-08-05T06:29:00Z,28.2670,-88.3990,79.8,354.0,14.3,-1.6,'1111122,1111122,1111122' 
ADCP,ioos:station:wmo:42387:1,2017-08-05T07:29:00Z,28.2670,-88.3990,79.8,348.0,13.8,-2.3,'1111122,1111122,1111122' 
ADCP,ioos:station:wmo:42387:1,2017-08-05T08:29:00Z,28.2670,-88.3990,79.8,2.0,11.3,-0.1,'1111122,1111122,1111122' 
ADCP,ioos:station:wmo:42387:1,2017-08-05T09:09:00Z,28.2670,-88.3990,79.8,8.0,11.1,0.0,'1111122,1111122,1114422' 
ADCP,ioos:station:wmo:42387:1,2017-08-05T10:09:00Z,28.2670,-88.3990,79.8,22.0,13.3,-1.2,'1111122,1111122,1111122' 
ADCP,ioos:station:wmo:42387:1,2017-08-05T11:29:00Z,28.2670,-88.3990,79.8,26.0,12.0,-2.8,'1111122,1111122,1111122' 
ADCP,ioos:station:wmo:42387:1,2017-08-05T12:09:00Z,28.2670,-88.3990,79.8,33.0,12.8,-4.9,'1111122,1111122,1111122' 
ADCP,ioos:station:wmo:42387:1,2017-08-05T13:09:00Z,28.2670,-88.3990,79.8,27.0,9.4,-3.9,'1111122,1111122,1111122' 
ADCP,ioos:station:wmo:42387:1,2017-08-05T14:29:00Z,28.2670,-88.3990,79.8,39.0,6.3,-1.9,'1111122,1111122,1111122' 
ADCP,ioos:station:wmo:42387:1,2017-08-05T15:09:00Z,28.2670,-88.3990,79.8,63.0,5.6,-1.1,'1111122,1111122,1111122' 
ADCP,ioos:station:wmo:42387:1,2017-08-05T16:29:00Z,28.2670,-88.3990,79.8,90.0,2.2,-0.9,'1111122,1111122,1111122' 
ADCP,ioos:station:wmo:42387:1,2017-08-05T17:29:00Z,28.2670,-88.3990,79.8,151.0,1.0,-0.5,'1113322,1111122,1111122' 
ADCP,ioos:station:wmo:42387:1,2017-08-05T18:29:00Z,28.2670,-88.3990,79.8,141.0,1.4,-1.4,'1111122,1111122,1111122' 
ADCP,ioos:station:wmo:42387:1,2017-08-05T19:29:00Z,28.2670,-88.3990,79.8,332.0,1.5,-1.8,'1111122,1111122,1111122' 
ADCP,ioos:station:wmo:42387:1,2017-08-05T20:29:00Z,28.2670,-88.3990,79.8,2.0,2.8,-3.3,'1111122,1111122,1111122' 
ADCP,ioos:station:wmo:42387:1,2017-08-05T21:29:00Z,28.2670,-88.3990,79.8,14.0,5.6,-2.9,'1111122,1111122,1111122' 
ADCP,ioos:station:wmo:42387:1,2017-08-06T03:09:00Z,28.2670,-88.3990,79.8,346.0,20.6,-3.7,'1111122,1111122,1111122' 
ADCP,ioos:station:wmo:42387:1,2017-08-06T04:09:00Z,28.2670,-88.3990,79.8,354.0,18.5,-2.5,'1111122,1111122,1111122' 
ADCP,ioos:station:wmo:42387:1,2017-08-06T05:29:00Z,28.2670,-88.3990,79.8,347.0,19.7,-2.4,'1111122,1111122,1111122' 
ADCP,ioos:station:wmo:42387:1,2017-08-06T06:09:00Z,28.2670,-88.3990,79.8,354.0,15.4,-1.9,'1111122,1111122,1111122' 
ADCP,ioos:station:wmo:42387:1,2017-08-06T07:29:00Z,28.2670,-88.3990,79.8,359.0,18.1,-2.4,'1111122,1111122,1111122' 
ADCP,ioos:station:wmo:42387:1,2017-08-06T08:29:00Z,28.2670,-88.3990,79.8,357.0,17.6,-1.9,'1111122,1111122,1111122' 
ADCP,ioos:station:wmo:42387:1,2017-08-06T09:29:00Z,28.2670,-88.3990,79.8,1.0,18.8,-3.0,'1111122,1111122,1111122' 
ADCP,ioos:station:wmo:42387:1,2017-08-06T10:29:00Z,28.2670,-88.3990,79.8,10.0,18.7,-2.7,'1111122,1111122,1111122' 
ADCP,ioos:station:wmo:42387:1,2017-08-06T11:29:00Z,28.2670,-88.3990,79.8,27.0,14.8,-4.4,'1111122,1111122,1111122' 
ADCP,ioos:station:wmo:42387:1,2017-08-06T12:29:00Z,28.2670,-88.3990,79.8,37.0,9.4,-3.4,'1111122,1111122,1111122' 
ADCP,ioos:station:wmo:42387:1,2017-08-06T13:29:00Z,28.2670,-88.3990,79.8,35.0,8.5,-3.2,'1111122,1111122,1111122' 
ADCP,ioos:station:wmo:42387:1,2017-08-06T14:29:00Z,28.2670,-88.3990,79.8,5.0,10.7,-4.1,'1111122,1111122,1111122' 
ADCP,ioos:station:wmo:42387:1,2017-08-06T15:09:00Z,28.2670,-88.3990,79.8,358.0,10.3,-4.9,'1111122,1111122,1111122' 
ADCP,ioos:station:wmo:42387:1,2017-08-06T16:29:00Z,28.2670,-88.3990,79.8,14.0,10.1,-4.7,'1111122,1111122,1111122' 
ADCP,ioos:station:wmo:42387:1,2017-08-06T18:29:00Z,28.2670,-88.3990,79.8,27.0,6.9,-2.7,'1111122,1111122,1111122' 
ADCP,ioos:station:wmo:42387:1,2017-08-06T19:29:00Z,28.2670,-88.3990,79.8,14.0,5.7,-2.7,'1111122,1111122,1111122' 
ADCP,ioos:station:wmo:42387:1,2017-08-06T20:29:00Z,28.2670,-88.3990,79.8,30.0,4.8,-1.8,'1111122,1111122,1111122' 
ADCP,ioos:station:wmo:42387:1,2017-08-06T21:29:00Z,28.2670,-88.3990,79.8,13.0,4.0,-2.2,'1111122,1111122,1111122' 
ADCP,ioos:station:wmo:42387:1,2017-08-06T23:29:00Z,28.2670,-88.3990,79.8,354.0,4.6,-3.9,'1111122,1111122,1111122' 
ADCP,ioos:station:wmo:42387:1,2017-08-07T00:29:00Z,28.2670,-88.3990,79.8,332.0,5.5,-3.5,'1111122,1111122,1111122' 
ADCP,ioos:station:wmo:42387:1,2017-08-07T01:29:00Z,28.2670,-88.3990,79.8,304.0,8.6,-1.9,'1111122,1111122,1111122' 
ADCP,ioos:station:wmo:42387:1,2017-08-07T02:29:00Z,28.2670,-88.3990,79.8,309.0,8.7,-0.9,'1111122,1111122,1111122' 
ADCP,ioos:station:wmo:42387:1,2017-08-07T03:29:00Z,28.2670,-88.3990,79.8,329.0,8.5,-0.6,'1111122,1111122,1111122' 
ADCP,ioos:station:wmo:42387:1,2017-08-07T04:29:00Z,28.2670,-88.3990,79.7,337.0,9.5,-1.3,'1111122,1111122,1111122' 
ADCP,ioos:station:wmo:42387:1,2017-08-07T05:29:00Z,28.2670,-88.3990,79.7,336.0,9.4,-1.6,'1111122,1111122,1111122' 
ADCP,ioos:station:wmo:42387:1,2017-08-07T06:29:00Z,28.2670,-88.3990,79.7,340.0,9.2,-1.5,'1111122,1111122,1111122' 
ADCP,ioos:station:wmo:42387:1,2017-08-07T07:29:00Z,28.2670,-88.3990,79.8,331.0,9.5,-1.8,'1111122,1111122,1111122' 
ADCP,ioos:station:wmo:42387:1,2017-08-07T08:29:00Z,28.2670,-88.3990,79.8,333.0,8.2,-1.7,'1111122,1111122,1111122' 
ADCP,ioos:station:wmo:42387:1,2017-08-07T09:29:00Z,28.2670,-88.3990,79.8,343.0,10.2,-2.6,'1111122,1111122,1111122' 
ADCP,ioos:station:wmo:42387:1,2017-08-07T10:29:00Z,28.2670,-88.3990,79.7,337.0,11.4,-3.8,'1111122,1111122,1111122' 
ADCP,ioos:station:wmo:42387:1,2017-08-07T11:29:00Z,28.2670,-88.3990,79.7,5.0,8.8,-4.7,'1111122,1111122,1111122' 
ADCP,ioos:station:wmo:42387:1,2017-08-07T12:29:00Z,28.2670,-88.3990,79.8,357.0,6.3,-3.3,'1111122,1111122,1111122' 
ADCP,ioos:station:wmo:42387:1,2017-08-07T13:29:00Z,28.2670,-88.3990,79.8,348.0,8.7,-3.2,'1111122,1111122,1111122' 
ADCP,ioos:station:wmo:42387:1,2017-08-07T14:29:00Z,28.2670,-88.3990,79.8,356.0,9.7,-4.1,'1111122,1111122,1111122' 
ADCP,ioos:station:wmo:42387:1,2017-08-07T15:29:00Z,28.2670,-88.3990,79.8,360.0,7.5,-3.1,'1111122,1111122,1111122' 
ADCP,ioos:station:wmo:42387:1,2017-08-07T16:29:00Z,28.2670,-88.3990,79.8,21.0,10.3,-4.6,'1111122,1111122,1111122' 
ADCP,ioos:station:wmo:42387:1,2017-08-07T18:29:00Z,28.2670,-88.3990,79.8,31.0,6.8,-1.9,'1111122,1111122,1111122' 
ADCP,ioos:station:wmo:42387:1,2017-08-07T19:29:00Z,28.2670,-88.3990,79.8,42.0,5.0,-1.4,'1111122,1111122,1111122' 
ADCP,ioos:station:wmo:42387:1,2017-08-07T20:29:00Z,28.2670,-88.3990,79.8,51.0,5.1,-1.1,'1111122,1111122,1111122' 
ADCP,ioos:station:wmo:42387:1,2017-08-07T21:29:00Z,28.2670,-88.3990,79.8,55.0,4.2,-1.2,'1111122,1111122,1111122' 
ADCP,ioos:station:wmo:42387:1,2017-08-07T22:29:00Z,28.2670,-88.3990,79.8,71.0,2.8,-0.8,'1111122,1111122,1111122' 
ADCP,ioos:station:wmo:42387:1,2017-08-07T23:09:00Z,28.2670,-88.3990,79.8,48.0,2.8,-2.3,'1111122,1111122,1111122' 
ADCP,ioos:station:wmo:42387:1,2017-08-08T00:29:00Z,28.2670,-88.3990,79.8,75.0,2.7,-1.1,'1111122,1111122,1111122' 
ADCP,ioos:station:wmo:42387:1,2017-08-08T01:29:00Z,28.2670,-88.3990,79.8,216.0,1.9,0.2,'1111122,1111122,1111122' 
ADCP,ioos:station:wmo:42387:1,2017-08-08T02:29:00Z,28.2670,-88.3990,79.7,203.0,6.3,0.6,'1111122,1111122,1111122' 
ADCP,ioos:station:wmo:42387:1,2017-08-08T03:29:00Z,28.2670,-88.3990,79.8,218.0,6.1,0.3,'1111122,1111122,1111122' 
ADCP,ioos:station:wmo:42387:1,2017-08-08T04:29:00Z,28.2670,-88.3990,79.8,271.0,4.8,-0.5,'1111122,1111122,1111122' 
ADCP,ioos:station:wmo:42387:1,2017-08-08T05:29:00Z,28.2670,-88.3990,79.8,301.0,7.4,-0.3,'1111122,1111122,1111122' 
ADCP,ioos:station:wmo:42387:1,2017-08-08T06:09:00Z,28.2670,-88.3990,79.8,306.0,7.4,-0.5,'1111122,1111122,1111122' 
ADCP,ioos:station:wmo:42387:1,2017-08-08T08:09:00Z,28.2670,-88.3990,79.8,298.0,8.7,-1.8,'1111122,1111122,1111122' 
ADCP,ioos:station:wmo:42387:1,2017-08-08T09:29:00Z,28.2670,-88.3990,79.8,343.0,13.8,-3.2,'1111122,1111122,1111122' 
ADCP,ioos:station:wmo:42387:1,2017-08-08T10:29:00Z,28.2670,-88.3990,79.8,347.0,10.1,-1.3,'1111122,1111122,1111122' 
ADCP,ioos:station:wmo:42387:1,2017-08-08T11:29:00Z,28.2670,-88.3990,79.8,358.0,12.7,-5.3,'1111122,1111122,1111122' 
ADCP,ioos:station:wmo:42387:1,2017-08-08T12:29:00Z,28.2670,-88.3990,79.8,357.0,8.3,-3.1,'1111122,1111122,1111122' 
ADCP,ioos:station:wmo:42387:1,2017-08-08T13:29:00Z,28.2670,-88.3990,79.8,5.0,11.6,-3.8,'1111122,1111122,1111122' 
ADCP,ioos:station:wmo:42387:1,2017-08-08T14:09:00Z,28.2670,-88.3990,79.8,8.0,10.4,-3.5,'1111122,1111122,1111122' 
ADCP,ioos:station:wmo:42387:1,2017-08-08T15:09:00Z,28.2670,-88.3990,79.8,9.0,12.8,-3.0,'1111122,1111122,1111122' 
ADCP,ioos:station:wmo:42387:1,2017-08-08T16:29:00Z,28.2670,-88.3990,79.8,23.0,15.5,-3.4,'1111122,1111122,1111122' 
ADCP,ioos:station:wmo:42387:1,2017-08-08T18:09:00Z,28.2670,-88.3990,79.8,44.0,13.8,-2.2,'1111122,1111122,1111122' 
ADCP,ioos:station:wmo:42387:1,2017-08-08T19:29:00Z,28.2670,-88.3990,79.8,60.0,13.4,-1.2,'1111122,1111122,1111122' 
ADCP,ioos:station:wmo:42387:1,2017-08-08T19:49:00Z,28.2670,-88.3990,79.8,47.0,13.3,-2.6,'1111122,1111122,1111122' 
ADCP,ioos:station:wmo:42387:1,2017-08-08T22:29:00Z,28.2670,-88.3990,79.8,49.0,9.6,-0.6,'1111122,1111122,1111122' 
ADCP,ioos:station:wmo:42387:1,2017-08-08T23:09:00Z,28.2670,-88.3990,79.8,30.0,9.6,-1.1,'1111122,1111122,1111122' 
ADCP,ioos:station:wmo:42387:1,2017-08-09T00:29:00Z,28.2670,-88.3990,79.8,63.0,3.8,-0.3,'1111122,1111122,1111122' 
ADCP,ioos:station:wmo:42387:1,2017-08-09T01:29:00Z,28.2670,-88.3990,79.8,68.0,4.3,-0.3,'1111122,1111122,1111122' 
ADCP,ioos:station:wmo:42387:1,2017-08-09T02:29:00Z,28.2670,-88.3990,79.8,22.0,3.8,-0.4,'1111122,1111122,1111122' 
ADCP,ioos:station:wmo:42387:1,2017-08-09T03:29:00Z,28.2670,-88.3990,79.8,7.0,6.1,-1.1,'1111122,1111122,1111122' 
ADCP,ioos:station:wmo:42387:1,2017-08-09T04:29:00Z,28.2670,-88.3990,79.8,335.0,3.3,0.0,'1111122,1111122,1114422' 
ADCP,ioos:station:wmo:42387:1,2017-08-09T06:29:00Z,28.2670,-88.3990,79.8,270.0,3.0,-0.7,'1111122,1111122,1111122' 
ADCP,ioos:station:wmo:42387:1,2017-08-09T07:29:00Z,28.2670,-88.3990,79.8,270.0,4.6,0.8,'1111122,1111122,1111122' 
ADCP,ioos:station:wmo:42387:1,2017-08-09T08:29:00Z,28.2670,-88.3990,79.8,280.0,5.9,0.3,'1111122,1111122,1111122' 
ADCP,ioos:station:wmo:42387:1,2017-08-09T09:29:00Z,28.2670,-88.3990,79.8,312.0,8.4,0.2,'1111122,1111122,1111122' 
ADCP,ioos:station:wmo:42387:1,2017-08-09T10:29:00Z,28.2670,-88.3990,79.8,337.0,9.2,-3.1,'1111122,1111122,1111122' 
ADCP,ioos:station:wmo:42387:1,2017-08-09T11:29:00Z,28.2670,-88.3990,79.8,343.0,11.5,-6.2,'1111122,1111122,1111122' 
ADCP,ioos:station:wmo:42387:1,2017-08-09T12:29:00Z,28.2670,-88.3990,79.8,356.0,10.9,-6.5,'1111122,1111122,1111122' 
ADCP,ioos:station:wmo:42387:1,2017-08-09T13:29:00Z,28.2670,-88.3990,79.8,350.0,13.9,-5.6,'1111122,1111122,1111122' 
ADCP,ioos:station:wmo:42387:1,2017-08-09T15:29:00Z,28.2670,-88.3990,79.8,10.0,17.5,-3.7,'1111122,1111122,1111122' 
ADCP,ioos:station:wmo:42387:1,2017-08-09T16:29:00Z,28.2670,-88.3990,79.8,19.0,23.5,-4.4,'1111122,1111122,1111122' 
ADCP,ioos:station:wmo:42387:1,2017-08-09T23:29:00Z,28.2670,-88.3990,79.8,72.0,10.6,-0.7,'1111122,1111122,1111122' 
ADCP,ioos:station:wmo:42387:1,2017-08-10T00:29:00Z,28.2670,-88.3990,79.8,70.0,7.9,0.0,'1111122,1111122,1114422' 
ADCP,ioos:station:wmo:42387:1,2017-08-10T01:29:00Z,28.2670,-88.3990,79.8,62.0,8.7,-1.9,'1111122,1111122,1111122' 
ADCP,ioos:station:wmo:42387:1,2017-08-10T02:29:00Z,28.2670,-88.3990,79.8,71.0,6.1,-1.5,'1111122,1111122,1111122' 
ADCP,ioos:station:wmo:42387:1,2017-08-10T03:29:00Z,28.2670,-88.3990,79.8,28.0,3.6,-2.0,'1111122,1111122,1111122' 
ADCP,ioos:station:wmo:42387:1,2017-08-10T04:29:00Z,28.2670,-88.3990,79.8,47.0,2.3,-0.4,'1111122,1111122,1111122' 
ADCP,ioos:station:wmo:42387:1,2017-08-10T05:29:00Z,28.2670,-88.3990,79.8,358.0,2.4,0.1,'1111122,1111122,1111122' 
ADCP,ioos:station:wmo:42387:1,2017-08-10T06:29:00Z,28.2670,-88.3990,79.8,331.0,4.6,0.3,'1111122,1111122,1111122' 
ADCP,ioos:station:wmo:42387:1,2017-08-10T07:29:00Z,28.2670,-88.3990,79.8,325.0,4.4,0.3,'1111122,1111122,1111122' 
ADCP,ioos:station:wmo:42387:1,2017-08-10T08:29:00Z,28.2670,-88.3990,79.8,326.0,7.6,-0.9,'1111122,1111122,1111122' 
ADCP,ioos:station:wmo:42387:1,2017-08-10T09:29:00Z,28.2670,-88.3990,79.8,327.0,12.0,-1.1,'1111122,1111122,1111122' 
ADCP,ioos:station:wmo:42387:1,2017-08-10T10:29:00Z,28.2670,-88.3990,79.8,338.0,10.0,-1.7,'1111122,1111122,1111122' 
ADCP,ioos:station:wmo:42387:1,2017-08-10T11:29:00Z,28.2670,-88.3990,79.8,351.0,11.8,-3.1,'1111122,1111122,1111122' 
ADCP,ioos:station:wmo:42387:1,2017-08-10T12:29:00Z,28.2670,-88.3990,79.8,353.0,12.9,-5.2,'1111122,1111122,1111122' 
ADCP,ioos:station:wmo:42387:1,2017-08-10T12:49:00Z,28.2670,-88.3990,79.8,354.0,13.1,-4.7,'1111122,1111122,1111122' 
 
DISCLAIMER: The Gulf of Mexico Coastal and Ocean Observing (GCOOS) Data Portal aggregates data from the regional data providers for the convenience of all data users. Data published on this website should not be used for navigation or certain other uses as we cannot guarantee data accuracy or availability. The data and delivery services are provided 'as is' without warranty of any kind. Data Source: Gulf of Mexico Coastal Ocean Observing System Data Portal (http://data.gcoos.org/) 
